sat.trackr.live / text

‹ back to catalog

STARLINK-33864

NORAD 63636 · 2025-083C

PAYLOAD ACTIVE UNKNOWN

§ Identity

Operator
Country
US
Launch date
2025-04-25
Launch site
AFETR
Launch vehicle
Mass (kg)
RCS (m²)

Purposes: comms

External: N2YO · Heavens-Above · Gunter

§ Orbital elements

Epoch: 2026-05-25T03:15:06.206400Z

Period
94.27 min
Inclination
42.9993°
Eccentricity
0.0001365
Mean motion
15.27591072 rev/d
Perigee alt
482.1 km
Apogee alt
484.0 km
Semi-major
6,861.2 km
B*
5.8519e-4
RAAN
293.8832°
Arg perigee
263.2800°
Mean anomaly
96.7896°
Rev number
6,178

§ Raw data

STARLINK-338641 63636U 25083C   26145.13548850  .00015881  00000+0  58519-3 0  99972 63636  42.9993 293.8832 0001365 263.2800  96.7896 15.27591072 61789

JSON: /api/v1/satellites/63636 · /tle

For live sub-satellite position, see the globe view (requires WebGL).

§ Visibility from observer

Set your observer location to see the next 7 days of passes ≥ 10°. The values pass through the URL so the page stays shareable.

No JS? Fill the form by hand. The geolocation button needs JavaScript.